Location: Unspecified
(45.3712°N, 0.6436°E)
Time: 06:16:00
(UTC+02:00)

ISS - Pass Details

Date: 20 July 2018
Orbit: 402 x 408 km, 51.6° (Epoch: 21 July)

Event Time Altitude Azimuth Distance (km) Brightness Sun altitude
Rises 23:42:42 0° 244° (WSW) 2,313 0.1 -16.7°
Reaches altitude 10° 23:44:46 10° 246° (WSW) 1,457 -0.9 -16.9°
Maximum altitude 23:48:02 76° 332° (NNW) 422 -3.7 -17.2°
Drops below altitude 10° 23:51:19 10° 59° (ENE) 1,467 -1.0 -17.5°
Sets 23:53:25 0° 61° (ENE) 2,331 0.0 -17.7°
